Location: Oberkirch
(48.5323°N, 8.0787°E)
Time: 06:53:40
(UTC+00:00)

MOZHAYETS 4 - Visible Passes

Search period start: 11 March 2026 00:00
Search period end: 21 March 2026 00:00
Orbit: 643 x 658 km, 98.3° (Epoch: 10 March)

Date Brightness Start Highest point End Pass type
(mag) Time Alt. Az. Time Alt. Az. Time Alt. Az.
11 Mar 9.6 03:25:21 10° SE 03:29:19 30° ENE 03:33:17 10° N visible
11 Mar 8.3 05:01:48 10° SSW 05:05:55 34° W 05:10:05 10° NNW visible
11 Mar 9.8 18:26:12 10° N 18:30:07 30° WNW 18:34:00 10° SW visible
12 Mar 8.5 03:51:29 10° SE 03:55:52 52° ENE 04:00:17 10° N visible
12 Mar 10.6 18:53:28 10° NNW 18:56:34 18° WNW 18:59:38 10° WSW visible
13 Mar 10.8 02:44:12 10° E 02:46:30 14° ENE 02:48:47 10° NNE visible
13 Mar 7.6 04:17:59 10° SSE 04:22:30 89° WSW 04:27:05 10° NNW visible
13 Mar 11.0 19:21:32 10° NW 19:22:55 11° NW 19:24:18 10° WNW visible
14 Mar 10.2 03:09:23 10° ESE 03:12:53 22° ENE 03:16:22 10° N visible
14 Mar 7.9 04:44:52 10° S 04:49:15 50° W 04:53:41 10° NNW visible
14 Mar 9.2 18:09:24 10° N 18:13:38 42° WNW 18:17:50 10° SW visible
15 Mar 9.3 03:35:13 10° SE 03:39:21 36° ENE 03:43:31 10° N visible
15 Mar 8.6 05:12:12 10° SSW 05:16:06 28° W 05:20:01 10° NW visible
15 Mar 10.2 18:36:28 10° N 18:40:08 25° WNW 18:43:47 10° WSW visible
16 Mar 8.2 04:01:27 10° SSE 04:05:56 64° ENE 04:10:25 10° N visible
16 Mar 10.8 19:03:53 10° NNW 19:06:32 16° WNW 19:09:09 10° W visible
17 Mar 10.6 02:53:38 10° E 02:56:27 16° ENE 02:59:15 10° NNE visible
17 Mar 7.6 04:28:05 10° S 04:32:36 73° WSW 04:37:08 10° NNW visible
18 Mar 9.9 03:19:05 10° ESE 03:22:51 26° ENE 03:26:37 10° N visible
18 Mar 8.1 04:55:06 10° SSW 04:59:21 40° W 05:03:39 10° NNW visible
18 Mar 9.6 18:19:33 10° N 18:23:38 35° WNW 18:27:40 10° SW visible
19 Mar 8.9 03:45:04 10° SE 03:49:21 44° ENE 03:53:39 10° N visible
19 Mar 10.5 18:46:43 10° NNW 18:50:05 21° WNW 18:53:25 10° WSW visible
20 Mar 11.0 02:38:20 10° ENE 02:40:02 12° NE 02:41:43 10° NNE visible
20 Mar 7.8 04:11:26 10° SSE 04:15:57 78° ENE 04:20:29 10° NNW visible
20 Mar 10.9 19:14:23 10° NNW 19:16:25 13° NW 19:18:28 10° W visible
